When you browse on this site, cookies collect data to enhance your experience and personalize the content and advertising you see.
Visit our Privacy Policy to learn more. By continuing to use the site, you agree to this use of cookies and data.
  • In United Kingdom
  • List of Countries
  • For 7 days
  • Water Temperature
  • Satellite Maps
  • Weather Map
  • Weather Widgets
  • user-avatar
    Login

    Hourly Weather Mevazor

    Today, 20 March, Wednesday

    Time Temperature Precipitation Wind Pressure Humidity
    00:00 +12°C° 0 mm 1 mps 708 mmHg 59%
    01:00 +11°C° 0 mm 1 mps 708 mmHg 60%
    02:00 +11°C° 0.1 mm 1 mps 708 mmHg 64%
    03:00 +10°C° 0.1 mm 1 mps 708 mmHg 68%
    04:00 +9°C° 0 mm 0 mps 707 mmHg 73%
    05:00 +9°C° 0.1 mm 0 mps 708 mmHg 71%
    06:00 +9°C° 0.1 mm 0 mps 708 mmHg 69%
    07:00 +10°C° 0.1 mm 0 mps 708 mmHg 67%
    08:00 +12°C° 0.2 mm 1 mps 709 mmHg 64%
    09:00 +12°C° 0.2 mm 1 mps 709 mmHg 61%
    10:00 +12°C° 0 mm 2 mps 709 mmHg 62%
    11:00 +13°C° 0.3 mm 2 mps 709 mmHg 62%
    12:00 +13°C° 0.3 mm 2 mps 709 mmHg 61%
    13:00 +14°C° 0.3 mm 2 mps 709 mmHg 60%
    14:00 +13°C° 0.3 mm 2 mps 709 mmHg 61%
    15:00 +13°C° 0.3 mm 1 mps 709 mmHg 62%
    16:00 +13°C° 0 mm 1 mps 709 mmHg 65%
    17:00 +12°C° 0.2 mm 1 mps 709 mmHg 68%
    18:00 +12°C° 0.2 mm 1 mps 709 mmHg 71%
    19:00 +12°C° 0.2 mm 1 mps 709 mmHg 73%
    20:00 +11°C° 0.1 mm 1 mps 709 mmHg 74%
    21:00 +11°C° 0.1 mm 1 mps 710 mmHg 75%
    22:00 +10°C° 0.1 mm 0 mps 710 mmHg 75%
    23:00 +9°C° 0 mm 0 mps 710 mmHg 75%

    Tomorrow, 21 March, Thursday

    Time Temperature Precipitation Wind Pressure Humidity
    00:00 +9°C° 0 mm 0 mps 710 mmHg 75%
    01:00 +9°C° 0 mm 0 mps 710 mmHg 75%
    02:00 +10°C° 0 mm 1 mps 710 mmHg 74%
    03:00 +9°C° 0 mm 1 mps 710 mmHg 73%
    04:00 +9°C° 0 mm 1 mps 710 mmHg 71%
    05:00 +10°C° 0 mm 1 mps 710 mmHg 68%
    06:00 +11°C° 0 mm 1 mps 711 mmHg 65%
    07:00 +11°C° 0 mm 1 mps 711 mmHg 62%
    08:00 +12°C° 0.1 mm 1 mps 711 mmHg 57%
    09:00 +14°C° 0.1 mm 1 mps 711 mmHg 52%
    10:00 +14°C° 0.1 mm 0 mps 712 mmHg 47%
    11:00 +14°C° 0.1 mm 0 mps 711 mmHg 46%
    12:00 +15°C° 0.1 mm 0 mps 711 mmHg 45%
    13:00 +15°C° 0.1 mm 0 mps 711 mmHg 45%
    14:00 +16°C° 0.1 mm 1 mps 711 mmHg 45%
    15:00 +16°C° 0.1 mm 1 mps 710 mmHg 45%
    16:00 +16°C° 0.1 mm 1 mps 710 mmHg 45%
    17:00 +15°C° 0 mm 1 mps 710 mmHg 48%
    18:00 +14°C° 0 mm 1 mps 710 mmHg 50%
    19:00 +13°C° 0 mm 2 mps 711 mmHg 53%
    20:00 +13°C° 0 mm 2 mps 711 mmHg 52%
    21:00 +13°C° 0 mm 2 mps 710 mmHg 52%
    22:00 +12°C° 0 mm 3 mps 710 mmHg 51%
    23:00 +13°C° 0 mm 2 mps 710 mmHg 50%

    Day after tomorrow, 22 March, Friday

    Time Temperature Precipitation Wind Pressure Humidity
    00:00 +12°C° 0 mm 2 mps 710 mmHg 49%
    01:00 +12°C° 0 mm 2 mps 709 mmHg 48%
    02:00 +12°C° 0 mm 2 mps 709 mmHg 48%
    03:00 +12°C° 0 mm 1 mps 709 mmHg 48%
    04:00 +12°C° 0 mm 1 mps 709 mmHg 48%
    05:00 +12°C° 0.2 mm 1 mps 709 mmHg 50%
    06:00 +12°C° 0.2 mm 2 mps 710 mmHg 52%
    07:00 +13°C° 0.2 mm 2 mps 710 mmHg 54%
    08:00 +14°C° 0 mm 2 mps 710 mmHg 49%
    09:00 +16°C° 0 mm 2 mps 710 mmHg 44%
    10:00 +17°C° 0 mm 2 mps 711 mmHg 39%
    11:00 +18°C° 0 mm 2 mps 710 mmHg 37%
    12:00 +19°C° 0 mm 2 mps 710 mmHg 36%
    13:00 +20°C° 0 mm 2 mps 709 mmHg 34%
    14:00 +19°C° 0 mm 2 mps 709 mmHg 36%
    15:00 +19°C° 0 mm 2 mps 709 mmHg 38%
    16:00 +19°C° 0 mm 2 mps 708 mmHg 40%
    17:00 +18°C° 0 mm 2 mps 708 mmHg 44%
    18:00 +16°C° 0 mm 2 mps 708 mmHg 49%
    19:00 +15°C° 0 mm 2 mps 708 mmHg 54%
    20:00 +15°C° 0 mm 2 mps 708 mmHg 55%
    21:00 +14°C° 0 mm 2 mps 708 mmHg 57%
    22:00 +14°C° 0 mm 2 mps 708 mmHg 58%
    23:00 +14°C° 0.1 mm 2 mps 708 mmHg 58%

    23 March, Saturday

    Time Temperature Precipitation Wind Pressure Humidity
    00:00 +14°C° 0.1 mm 2 mps 708 mmHg 58%
    01:00 +14°C° 0.1 mm 2 mps 707 mmHg 58%
    02:00 +14°C° 0.1 mm 1 mps 707 mmHg 58%
    03:00 +14°C° 0.1 mm 1 mps 708 mmHg 58%
    04:00 +13°C° 0.1 mm 1 mps 708 mmHg 58%
    05:00 +13°C° 0.1 mm 1 mps 708 mmHg 59%
    06:00 +14°C° 0.1 mm 1 mps 708 mmHg 60%
    07:00 +13°C° 0.1 mm 0 mps 709 mmHg 62%
    08:00 +14°C° 0.2 mm 2 mps 709 mmHg 60%
    09:00 +14°C° 0.2 mm 3 mps 710 mmHg 59%
    10:00 +15°C° 0.2 mm 4 mps 710 mmHg 57%
    11:00 +14°C° 1.2 mm 5 mps 710 mmHg 63%
    12:00 +14°C° 1.2 mm 5 mps 710 mmHg 68%
    13:00 +13°C° 1.2 mm 6 mps 710 mmHg 73%
    14:00 +13°C° 0.8 mm 5 mps 710 mmHg 72%
    15:00 +13°C° 0.8 mm 5 mps 710 mmHg 71%
    16:00 +13°C° 0.8 mm 4 mps 710 mmHg 71%
    17:00 +12°C° 0.1 mm 3 mps 710 mmHg 74%
    18:00 +12°C° 0.1 mm 2 mps 710 mmHg 77%
    19:00 +11°C° 0.1 mm 1 mps 710 mmHg 80%
    20:00 +11°C° 0 mm 1 mps 710 mmHg 80%
    21:00 +11°C° 0 mm 1 mps 711 mmHg 79%
    22:00 +10°C° 0 mm 1 mps 711 mmHg 78%
    23:00 +10°C° 0 mm 1 mps 710 mmHg 76%

    24 March, Sunday

    Time Temperature Precipitation Wind Pressure Humidity
    00:00 +10°C° 0 mm 1 mps 710 mmHg 73%
    01:00 +10°C° 0 mm 1 mps 710 mmHg 71%
    02:00 +9°C° 0 mm 2 mps 710 mmHg 69%
    03:00 +9°C° 0 mm 2 mps 710 mmHg 67%
    04:00 +9°C° 0 mm 2 mps 710 mmHg 65%
    05:00 +10°C° 0 mm 2 mps 710 mmHg 63%
    06:00 +10°C° 0 mm 2 mps 710 mmHg 60%
    07:00 +12°C° 0 mm 2 mps 710 mmHg 58%
    08:00 +14°C° 0 mm 2 mps 710 mmHg 52%
    09:00 +16°C° 0 mm 1 mps 710 mmHg 46%
    10:00 +19°C° 0 mm 1 mps 710 mmHg 40%
    11:00 +20°C° 0 mm 1 mps 710 mmHg 38%
    12:00 +20°C° 0 mm 2 mps 709 mmHg 35%
    13:00 +21°C° 0 mm 2 mps 709 mmHg 32%
    14:00 +21°C° 0 mm 2 mps 709 mmHg 32%
    15:00 +21°C° 0 mm 2 mps 708 mmHg 32%
    16:00 +22°C° 0 mm 1 mps 708 mmHg 32%
    17:00 +19°C° 0 mm 2 mps 708 mmHg 35%
    18:00 +17°C° 0 mm 3 mps 707 mmHg 38%
    19:00 +16°C° 0 mm 3 mps 707 mmHg 41%
    20:00 +14°C° 0 mm 4 mps 707 mmHg 40%
    21:00 +14°C° 0 mm 4 mps 707 mmHg 39%
    22:00 +14°C° 0 mm 4 mps 707 mmHg 38%
    23:00 +14°C° 0 mm 4 mps 707 mmHg 37%

    25 March, Monday

    Time Temperature Precipitation Wind Pressure Humidity
    00:00 +14°C° 0 mm 5 mps 707 mmHg 36%
    01:00 +14°C° 0 mm 5 mps 706 mmHg 36%
    02:00 +14°C° 0 mm 5 mps 706 mmHg 36%
    03:00 +14°C° 0 mm 5 mps 705 mmHg 36%
    04:00 +14°C° 0 mm 5 mps 705 mmHg 36%
    05:00 +15°C° 0 mm 5 mps 705 mmHg 37%
    06:00 +15°C° 0 mm 4 mps 705 mmHg 37%
    07:00 +17°C° 0 mm 4 mps 705 mmHg 38%
    08:00 +20°C° 0 mm 4 mps 705 mmHg 33%
    09:00 +22°C° 0 mm 4 mps 704 mmHg 29%
    10:00 +26°C° 0 mm 4 mps 704 mmHg 24%
    11:00 +26°C° 0 mm 4 mps 704 mmHg 23%
    12:00 +27°C° 0 mm 3 mps 703 mmHg 22%
    13:00 +27°C° 0 mm 3 mps 703 mmHg 21%
    14:00 +26°C° 0 mm 3 mps 703 mmHg 25%
    15:00 +25°C° 0 mm 3 mps 703 mmHg 29%
    16:00 +24°C° 0 mm 3 mps 703 mmHg 33%
    17:00 +21°C° 0.1 mm 4 mps 704 mmHg 39%
    18:00 +19°C° 0.1 mm 4 mps 705 mmHg 46%
    19:00 +16°C° 0.1 mm 5 mps 705 mmHg 52%
    20:00 +15°C° 1.9 mm 5 mps 706 mmHg 62%
    21:00 +14°C° 1.9 mm 5 mps 707 mmHg 72%
    22:00 +13°C° 1.9 mm 4 mps 707 mmHg 82%
    23:00 +12°C° 4.3 mm 5 mps 708 mmHg 85%
    Show more